Location: Bonnesvalyn
(49.1218°N, 3.3177°E)
Time: 20:30:28
(UTC+00:00)

COSMOS 1275 DEB - Visible Passes

Search period start: 26 February 2024 00:00
Search period end: 07 March 2024 00:00
Orbit: 837 x 913 km, 82.8° (Epoch: 24 February)

Date Brightness Start Highest point End Pass type
(mag) Time Alt. Az. Time Alt. Az. Time Alt. Az.
02 Mar ? 23:29:18 10° NNW 23:29:20 10° NNW 23:29:20 10° NNW visible
03 Mar ? 21:42:08 10° NNE 21:42:11 10° NNE 21:42:11 10° NNE visible
03 Mar ? 23:24:31 10° NNW 23:24:42 11° NNW 23:24:42 11° NNW visible
04 Mar ? 21:37:17 10° NNE 21:37:33 11° NNE 21:37:33 11° NNE visible
04 Mar ? 23:19:44 10° NNW 23:20:04 12° NNW 23:20:04 12° NNW visible
05 Mar ? 21:32:25 10° NNE 21:32:55 12° NNE 21:32:55 12° NNE visible
05 Mar ? 23:14:56 10° NNW 23:15:27 13° NNW 23:15:27 13° NNW visible
06 Mar ? 21:27:33 10° NNE 21:28:17 13° NNE 21:28:17 13° NNE visible
06 Mar ? 23:10:08 10° NNW 23:10:49 14° NNW 23:10:49 14° NNW visible
